sat.trackr.live / text

‹ back to catalog

HULIANWANG DIGUI-49

NORAD 65106 · 2025-168A

PAYLOAD ACTIVE UNKNOWN

§ Identity

Operator
Country
PRC
Launch date
2025-08-04
Launch site
WSC
Launch vehicle
Mass (kg)
RCS (m²)

External: N2YO · Heavens-Above · Gunter

§ Orbital elements

Epoch: 2026-09-21T18:24:47.566944Z

Period
108.33 min
Inclination
50.0050°
Eccentricity
0.0007449
Mean motion
13.29326318 rev/d
Perigee alt
1,143.7 km
Apogee alt
1,154.9 km
Semi-major
7,527.4 km
B*
6.8477e-5
RAAN
339.5734°
Arg perigee
31.0557°
Mean anomaly
329.0755°
Rev number
5,553

§ Raw data

HULIANWANG DIGUI-491 65106U 25168A   26264.76721721 -.00000092  00000+0  68477-4 0  99902 65106  50.0050 339.5734 0007449  31.0557 329.0755 13.29326318 55536

JSON: /api/v1/satellites/65106 · /tle

For live sub-satellite position, see the globe view (requires WebGL).

§ Visibility from observer

Set your observer location to see the next 7 days of passes ≥ 10°. The values pass through the URL so the page stays shareable.

No JS? Fill the form by hand. The geolocation button needs JavaScript.